www.pogodaiklimat.ru

Погода и климат >> Архив погоды >> Мадагаскар >> Taolagnaro


ПОГОДА в Taolagnaro

  • Прогноз погоды в Taolagnaro
  • Монитор погоды в Taolagnaro
  • Климат города

АРХИВ ПОГОДЫ в Taolagnaro

Время (UTC), дата Ветер
(напр.,м/с)
 
Видим.   Явления Облачность Т
(С)
Тd
(С)
f
(%)
Тe
(С)
Тes
(С)
Комфортность P
(гПа)
Po
(гПа)
Тmin
(С)
Tmax
(С)
R
(мм)
R24
(мм)
S
(см)
09 16.01 СВ 9 30 км 3/3 600 м
[Cu Sc]
+29.0 +21.6 64 +37 +38 очень
душно
1015.0 1014.1
12 16.01 В 9 30 км 3/3 700 м
[Cu med, cong]
+28.9 +24.0 75 +40 +41 очень
душно
1014.9 1013.9
15 16.01 В 7 30 км 3/3 700 м
[Cu Sc]
+26.0 +20.7 73 +33 +33 очень
душно
1015.0 1014.1 +29.3
18 16.01 СВ 4 30 км 3/3 600 м
[Cu Sc]
+24.4 +20.4 78 +30 +30 очень
душно
1016.9 1015.9 +29.3
21 16.01 СВ 5 20 км осадки на расстоянии 9/9 480 м
[Cu Sc]
+24.0 +21.0 83 +30 +30 очень
душно
1016.8 1015.8
00 17.01 СВ 3 25 км 4/4 480 м
[Cu Sc]
+23.6 +19.6 78 +29 +29 душно 1015.4 1014.5
03 17.01 СВ 5 6000 м слабый дождь 9/9 480 м
[Cu Sc]
+22.4 +21.2 93 +29 +29 очень
душно
1015.3 1014.2 0.0
06 17.01 СВ 5 10 км в посл. час дождь 10/10 480 м
[Cu Sc]
+22.7 +20.1 85 +29 +29 очень
душно
1016.0 1015.0 +22.1 +29.3 0.4
09 17.01 В 7 20 км {дождь} 6/6 600 м
[Cu Sc]
+27.0 +19.3 63 +33 +35 очень
душно
1015.1 1014.2 0.8
12 17.01 В 4 15 км осадки на расстоянии {дождь} 9/9 600 м
[Cu Sc]
+26.9 +20.4 68 +33 +34 очень
душно
1014.6 1013.6 0.4
15 17.01 В 5 20 км {дождь} 4/4 480 м
[Cu Sc]
+25.5 +20.5 74 +32 +32 очень
душно
1014.2 1013.2 +27.6 0.0
18 17.01 В 3 20 км {дождь} 4/4 600 м
[Cu Sc]
+23.6 +20.2 81 +29 +29 душно 1015.0 1014.1 +27.3 0.4
00 18.01 СВ 3 20 км {дождь} 4/4 600 м
[Cu Sc]
+24.1 +19.4 75 +29 +29 душно 1013.7 1012.7 0.1
03 18.01 штиль 0 20 км {дождь} 5/5 600 м
[Cu Sc]
+21.5 +20.0 91 +27 +27 душно 1013.9 1012.9
06 18.01 Ю 3 10 км в посл. час дождь 9/9 480 м
[Cu Sc]
+23.2 +22.2 94 +32 +33 очень
душно
1014.2 1013.2 +21.5 +27.3 1
09 18.01 В 4 20 км {дождь} 8/8 480 м
[Cu Sc]
+25.0 +22.0 83 +32 +35 очень
душно
1013.3 1012.3 3
15 18.01 ЮВ 5 20 км 5/5 480 м
[Cu Sc]
+25.5 +21.6 79 +33 +33 очень
душно
1012.8 1011.9 +29.4
18 18.01 В 4 20 км 8/8 480 м
[Cu Sc]
+24.4 +20.9 81 +31 +31 очень
душно
1014.0 1013.0 +28.4 2
21 18.01 СВ 2 20 км 5/5 480 м
[Cu Sc]
+23.4 +20.5 84 +31 +31 очень
душно
1013.5 1012.5
00 19.01 СВ 1 20 км 3/3 480 м
[Cu Sc]
+21.7 +20.6 93 +27 +27 душно 1011.4 1010.4
03 19.01 штиль 0 10 км слабый дождь 9/9 480 м
[Cu Sc]
+22.2 +21.3 95 +29 +29 очень
душно
1011.0 1010.0 2
06 19.01 З 2 10 км в посл. час дождь 9/9 480 м
[Cu Sc]
+25.4 +23.7 90 +35 +36 очень
душно
1010.5 1009.5 +21.5 +28.4 5
09 19.01 Ю 4 10 км осадки на расстоянии {дождь} 8/8 480 м
[Cu Sc]
+26.7 +22.8 79 +35 +38 очень
душно
1008.8 1007.8 2
12 19.01 5000 м н/о +23.2 +22.6 96 +32 +35 очень
душно
1007.3 1006.3 5
15 19.01 ЮЗ 5 15 км осадки на расстоянии 9/9 480 м
[Cu Sc]
+24.0 +22.2 90 +31 +31 очень
душно
1006.7 1005.7 +26.7 5
18 19.01 ЮЗ 5 10 км в посл. час дождь 9/9 480 м
[Cu Sc]
+23.4 +22.4 94 +32 +32 очень
душно
1006.5 1005.5 +26.6 7
00 20.01 СЗ 5 10 км осадки на расстоянии {дождь} 9/9 480 м
[Cu Sc]
+22.8 +21.9 95 +31 +31 очень
душно
1004.2 1003.2 5
03 20.01 СЗ 6 20 км {дождь} 6/6 480 м
[Cu Sc]
+23.5 +22.2 92 +30 +31 очень
душно
1004.5 1003.5 6
09 20.01 Ю 9 30 км 6/6 600 м
[Cu Sc]
+28.0 +22.1 70 +36 +37 очень
душно
1005.5 1004.5
12 20.01 З 9 30 км 5/5 600 м
[Cu Sc]
+27.2 +22.4 75 +36 +36 очень
душно
1006.0 1005.0
15 20.01 З 6 30 км 6/6 600 м
[Cu Sc]
+26.1 +21.5 76 +33 +33 очень
душно
1007.0 1006.1 +28.6
18 20.01 СЗ 3 30 км 5/5 480 м
[Cu Sc]
+24.5 +21.5 83 +31 +31 очень
душно
1009.2 1008.3 +28.6
21 20.01 З 2 30 км 3/3 480 м
[Cu Sc]
+23.8 +19.5 77 +29 +29 душно 1009.7 1008.8
00 21.01 СЗ 1 30 км 3/3 480 м
[Cu Sc]
+21.8 +19.6 87 +27 +27 душно 1009.5 1008.6
03 21.01 СЗ 2 30 км 1/1 480 м
[Cu Sc]
+21.4 +19.2 87 +26 +27 душно 1010.0 1009.1
06 21.01 З 4 30 км 1/1 700 м
[Cu Sc]
+26.9 +18.7 61 +32 +40 очень
душно
1010.6 1009.6 +21.0 +28.6
09 21.01 ЮЗ 7 30 км 6/6 700 м
[Cu Sc]
+26.8 +20.5 68 +33 +35 очень
душно
1010.6 1009.6
12 21.01 ЮЗ 7 30 км 3/3 600 м
[Cu Sc Ac trans]
+28.3 +19.7 60 +34 +36 очень
душно
1009.8 1008.8
15 21.01 ЮЗ 5 30 км 1/1 600 м
[Cu Sc]
+26.1 +20.4 71 +32 +32 очень
душно
1010.2 1009.2 +28.3
18 21.01 ЮЗ 3 30 км 5/5 600 м
[Cu Sc]
+24.4 +20.0 76 +30 +30 очень
душно
1011.8 1010.8 +28.3
21 21.01 Ю 3 30 км 5/4 600 м
[Cu Sc Ac trans]
+23.6 +19.8 79 +29 +29 душно 1012.1 1011.1
00 22.01 СЗ 2 30 км 4/3 600 м
[Cu Sc Ac trans]
+21.9 +18.9 83 +27 +27 душно 1010.9 1009.9
03 22.01 СЗ 3 30 км 6/6 600 м
[Cu Sc]
+21.0 +18.6 86 +26 +26 душно 1012.0 1011.1
06 22.01 Ю 4 30 км 5/5 600 м
[Cu Sc]
+26.5 +19.0 63 +32 +36 очень
душно
1012.4 1011.5 +21.0 +28.3
09 22.01 штиль 0 50 км ?/? +27.5 +19.9 63 +33 +33 очень
душно
1011.8 1010.8
12 22.01 Ю 4 20 км 8/8 600 м
[Cu Sc]
+26.0 +19.9 69 +32 +33 очень
душно
1011.8 1010.8
18 22.01 ЮВ 5 20 км 9/9 480 м
[Cu Sc]
+24.5 +19.1 72 +29 +29 душно 1012.3 1011.4 +28.0
00 23.01 ЮВ 4 20 км 9/9 480 м
[Cu Sc]
+24.2 +18.1 69 +29 +29 душно 1011.0 1010.0

 

Местоположение метеостанции Taolagnaro (Мадагаскар): широта -25.03 долгота 46.95 высота над уровнем моря 9 м.

В архиве по умолчанию представлена погода в Taolagnaro за последнюю неделю. Архивные данные за месяц целиком и за предыдущие месяцы, начиная с января 2011 года, Вы можете получить, выбрав интересующий диапазон дат из раскрывающегося списка и нажав кнопку "Ввод!".

Внимание! Время в таблицах - всемирное. Для получения местного времени необходимо прибавить поправку, которая в Taolagnaro равна 3 ч.

Смотрите также архив погоды в соседних городах и на ближайших метеорологических станциях:

Погода в Ranohira (Мадагаскар) (166 км)
Погода в Farafangana (Мадагаскар) (264 км)
Погода в Toliara (Мадагаскар) (375 км)
Погода в Fianarantsoa (Мадагаскар) (398 км)
Погода в Mananjary (Мадагаскар) (408 км)
Погода в Morombe (Мадагаскар) (516 км)
Погода в Antsirabe (Мадагаскар) (581 км)
Погода в Morondava (Мадагаскар) (593 км)
Погода в Mahanoro (Мадагаскар) (609 км)
Погода в Antananarivo (Мадагаскар) (687 км)

Пояснения к столбцам:

Ветер - указаны скорость ветра в м/с - средняя за 10 мин, порывы в срок и между сроками (в фигурных скобках) и направление, откуда дует ветер: С - северный, СВ - северо-восточный, В - восточный, ЮВ - юго-восточный, Ю - южный, ЮЗ - юго-западный, З - западный, СЗ - северо-западный.
Видимость - горизонтальная дальность видимости в метрах или километрах. При видимости от 1 до 10 км при отсутствии осадков обычно наблюдается дымка, при ухудшении видимости до 1 км и менее - туман. В сухую погоду видимость может ухудшаться дымом, пылью или мглою.
Явления - указаны атмосферные явления, наблюдавшиеся в срок или в последний час перед сроком; фигурными скобками обозначены явления, наблюдавшиеся между сроками (за 1-3 часа до срока); квадратными скобками обозначены град или гололедные отложения с указанием их диаметра в мм.
Облачность - указаны через наклонную черту общая и нижняя облачность в баллах и высота нижней границы облаков в метрах; квадратными скобками обозначены формы облаков: Ci - перистые, Cs - перисто-слоистые, Cc - перисто-кучевые, Ac - высококучевые, As - высокослоистые, Sc - слоисто-кучевые, Ns - слоисто-дождевые, Cu - кучевые, Cb - кучево-дождевые. Подробнее классификацию облаков см. в Атласе облаков (PDF).
T - Температура воздуха - температура, измеренная на высоте 2 м над землей.
Td - Температура точки росы - температура, при понижении до которой содержащийся в воздухе водяной пар достигнет насыщения.
f - Относительная влажность воздуха - влажноcть воздуха, измеренная на высоте 2 м над землей.
Te - Эффективная температура - температура, которую ощущает одетый по сезону человек в тени. Характеристика душности погоды. При расчете учитывается влияние влажности воздуха и скорости ветра на теплоощущения человека.
Tes - Эффективная температура на солнце - температура, которую ощущает человек, с поправкой на солнечный нагрев. Характеристика знойности погоды. Зависит от высоты солнца над горизонтом, облачности и скорости ветра. Ночью, в пасмурную погоду, а также при ветре 12 м/с и более поправка равна нулю.
P - Атмосферное давление - приведенное к уровню моря атмосферное давление.
Po - Атмосферное давление - измеренное на уровне метеостанции атмосферное давление.
Tmin - Минимальная температура - минимум температуры воздуха на высоте 2 м над землей.
Tmax - Максимальная температура - максимум температуры воздуха на высоте 2 м над землей.
R - Количество осадков - Количество выпавших осадков за период времени, мм. При наведении курсора мыши на число - период времени, за который выпало указанное количество осадков.
R24 - Количество осадков - Количество выпавших осадков за 24 часа, мм.
S - Снежный покров - Высота снежного покрова, см. При наведении курсора мыши на число - состояние снежного покрова и степень покрытия местности в баллах.